This is the latest recevied weather packets stored in our database for station/object SQ4IXR-4. If no packets are shown the sender has not sent any weather packets the latest 10 day(s).
| Time | Temp. | Humidity | Pressure | Rain* | Wind** | Luminosity | Snow |
|---|---|---|---|---|---|---|---|
| 1787872258 | 15.56° C | 82% | 1029.7 hPa | - | - | - | - |
| 1787871435 | 15.56° C | 83% | 1029.5 hPa | - | - | - | - |
| 1787870612 | 15.56° C | 81% | 1029.7 hPa | - | - | - | - |
| 1787869789 | 15.56° C | 81% | 1029.6 hPa | - | - | - | - |
| 1787868966 | 15.56° C | 80% | 1029.7 hPa | - | - | - | - |
| 1787868143 | 16.11° C | 79% | 1029.8 hPa | - | - | - | - |
| 1787867319 | 16.11° C | 77% | 1029.8 hPa | - | - | - | - |
| 1787866495 | 16.11° C | 77% | 1029.9 hPa | - | - | - | - |
| 1787865672 | 16.67° C | 76% | 1029.8 hPa | - | - | - | - |
| 1787864849 | 16.67° C | 74% | 1029.8 hPa | - | - | - | - |
| 1787864026 | 16.67° C | 73% | 1029.7 hPa | - | - | - | - |
| 1787863202 | 17.22° C | 72% | 1029.7 hPa | - | - | - | - |
| 1787862380 | 17.22° C | 71% | 1029.4 hPa | - | - | - | - |
| 1787861557 | 17.22° C | 69% | 1029.2 hPa | - | - | - | - |
| 1787860733 | 17.22° C | 70% | 1029.2 hPa | - | - | - | - |
| 1787859909 | 17.22° C | 72% | 1029.1 hPa | - | - | - | - |
| 1787859087 | 17.78° C | 67% | 1029.1 hPa | - | - | - | - |
| 1787858263 | 18.33° C | 63% | 1028.9 hPa | - | - | - | - |
| 1787857442 | 18.33° C | 60% | 1028.8 hPa | - | - | - | - |
| 1787856618 | 18.89° C | 58% | 1028.8 hPa | - | - | - | - |
| 1787855796 | 18.89° C | 57% | 1028.6 hPa | - | - | - | - |
| 1787854971 | 19.44° C | 56% | 1028.6 hPa | - | - | - | - |
| 1787854148 | 19.44° C | 55% | 1028.4 hPa | - | - | - | - |
| 1787853325 | 19.44° C | 53% | 1028.3 hPa | - | - | - | - |
| 1787852503 | 20° C | 51% | 1028.2 hPa | - | - | - | - |
* Rain since midnight (hover to see other rain measurements)
** Current wind speed in m/s (hover to see current wind gust speed)